Explorer — C6TN4 — position and weather

sailwx.info

Track history (hours):
 
Tides and Currents Weather Stations Pressure Air Temp Water Temp Dewpoint Dewpoint Depression Visibility Wind Speed Wind Dir Waves Ship Positions

Explorer

Last reported at 2014-Jul-23 17:33 UTC. Time now 2014-Jul-23 18:02 UTC.
Position N 59°58' E 026°29'.

Length 180 m; draft 7.4 m.

Type: Passenger vessel. MMSI: 311705000.

Date/timePositionNaut miles runAvg speedWind from/ knotsBaromVisibWave heightAir tempDewpointWater temp
2014-Jul-23 17:33N 59°58' E 026°29'14512.1
2014-Jul-23 05:33N 59°10' E 021°59'1312.5
2014-Jul-23 04:33N 59°02' E 021°41'1312.6
2014-Jul-23 03:33N 58°51' E 021°28'2712.1
2014-Jul-23 01:21N 58°29' E 020°59'1012.2
2014-Jul-23 00:33N 58°21' E 020°49'1212.2
2014-Jul-22 23:33N 58°11' E 020°36'1212.0
2014-Jul-22 22:33N 58°01' E 020°23'1811.9
2014-Jul-22 21:04N 57°45' E 020°10'6111.1
2014-Jul-22 15:33N 56°59' E 018°56'1111.1
2014-Jul-22 14:32N 56°52' E 018°39'1111.0
2014-Jul-22 13:33N 56°46' E 018°23'1111.2
2014-Jul-22 12:33N 56°39' E 018°08'1211.6
2014-Jul-22 11:33N 56°31' E 017°51'1211.6
2014-Jul-22 10:33N 56°24' E 017°35'1511.3
2014-Jul-22 09:15N 56°15' E 017°13'811.1
2014-Jul-22 08:29N 56°10' E 017°01'1111.0
2014-Jul-22 07:30N 56°03' E 016°46'1111.3
2014-Jul-22 06:33N 55°58' E 016°30'1111.2
2014-Jul-22 05:33N 55°52' E 016°13'2811.2
2014-Jul-22 03:06N 55°37' E 015°31'611.2
2014-Jul-22 02:33N 55°34' E 015°22'1111.4
2014-Jul-22 01:33N 55°30' E 015°04'1211.8
2014-Jul-22 00:33N 55°25' E 014°45'1211.8
2014-Jul-21 23:33N 55°17' E 014°29'1111.1
2014-Jul-21 22:33N 55°10' E 014°14'1111.3
2014-Jul-21 21:33N 55°10' E 013°55'1111.3
2014-Jul-21 20:33N 55°11' E 013°35'311.6
2014-Jul-21 20:17N 55°11' E 013°30'811.5
2014-Jul-21 19:33N 55°12' E 013°15'1211.5
2014-Jul-21 18:33N 55°14' E 012°55'1111.1
2014-Jul-21 17:33N 55°17' E 012°36'1211.6
2014-Jul-21 16:33N 55°29' E 012°41'9 9.3
2014-Jul-21 15:33N 55°38' E 012°42'1313.1
2014-Jul-21 14:33N 55°51' E 012°42'1515.4
2014-Jul-21 13:33N 56°06' E 012°34'1616.3
2014-Jul-21 12:33N 56°15' E 012°09'1514.3
2014-Jul-21 11:33N 56°28' E 011°59'1212.0
2014-Jul-21 10:33N 56°40' E 011°54'1211.4
2014-Jul-21 09:32N 56°51' E 011°49'1111.5
2014-Jul-21 08:32N 57°02' E 011°41'1111.3
2014-Jul-21 07:33N 57°12' E 011°35'1211.6
2014-Jul-21 06:33N 57°23' E 011°27'1211.7
2014-Jul-21 05:33N 57°33' E 011°15'1212.0
2014-Jul-21 04:33N 57°41' E 010°58'1010.0
2014-Jul-21 03:33N 57°50' E 010°50'1110.9
2014-Jul-21 02:33N 58°01' E 010°48'4811.9
2014-Jul-20 22:33N 58°48' E 010°39'1212.3
2014-Jul-20 21:33N 59°00' E 010°36'1414.2
2014-Jul-20 20:33N 59°15' E 010°37'2019.6
2014-Jul-20 19:31N 59°35' E 010°38'1814.9
2014-Jul-20 18:20N 59°52' E 010°39'3 3.9
2014-Jul-20 17:28N 59°54' E 010°44'0 0.0
2014-Jul-20 16:28N 59°54' E 010°44'0 0.0
2014-Jul-20 15:28N 59°54' E 010°44'0 0.0
2014-Jul-20 14:28N 59°54' E 010°44'0 0.0
2014-Jul-20 13:28N 59°54' E 010°44'0 0.0
2014-Jul-20 12:28N 59°54' E 010°44'0 0.0
2014-Jul-20 11:28N 59°54' E 010°44'0 0.0
2014-Jul-20 10:19N 59°54' E 010°44'0 0.0
2014-Jul-20 09:31N 59°54' E 010°44'0 0.0
2014-Jul-20 08:22N 59°54' E 010°44'0 0.0
2014-Jul-20 07:22N 59°54' E 010°44'0 0.0
2014-Jul-20 06:22N 59°54' E 010°44'0 0.0
2014-Jul-20 05:25N 59°54' E 010°44'0 0.0
2014-Jul-20 04:25N 59°54' E 010°44'0 0.0
2014-Jul-20 03:22N 59°54' E 010°44'0 0.0
2014-Jul-20 02:28N 59°54' E 010°44'0 0.0
2014-Jul-20 01:28N 59°54' E 010°44'0 0.0
2014-Jul-20 00:31N 59°54' E 010°44'0 0.0
2014-Jul-19 23:31N 59°54' E 010°44'0 0.0
2014-Jul-19 22:31N 59°54' E 010°44'0 0.0
2014-Jul-19 21:31N 59°54' E 010°44'0 0.0
2014-Jul-19 20:31N 59°54' E 010°44'0 0.0
2014-Jul-19 19:22N 59°54' E 010°44'0 0.0
2014-Jul-19 18:31N 59°54' E 010°44'0 0.0
2014-Jul-19 17:22N 59°54' E 010°44'0 0.0
2014-Jul-19 16:10N 59°54' E 010°44'0 0.0
2014-Jul-19 15:25N 59°54' E 010°44'0 0.0
2014-Jul-19 14:22N 59°54' E 010°44'0 0.0
2014-Jul-19 13:28N 59°54' E 010°44'0 0.0
2014-Jul-19 12:25N 59°54' E 010°44'0 0.0
2014-Jul-19 11:28N 59°54' E 010°44'0 0.0
2014-Jul-19 10:25N 59°54' E 010°44'0 0.0
2014-Jul-19 09:16N 59°54' E 010°44'0 0.0
2014-Jul-19 08:31N 59°54' E 010°44'0 0.0
2014-Jul-19 07:31N 59°54' E 010°44'0 0.0
2014-Jul-19 06:31N 59°54' E 010°44'0 0.0
2014-Jul-19 05:33N 59°54' E 010°44'2411.5
2014-Jul-19 03:29N 59°31' E 010°36'1718.7
2014-Jul-19 02:33N 59°14' E 010°38'1514.8
2014-Jul-19 01:33N 58°59' E 010°34'1312.9
2014-Jul-19 00:33N 58°49' E 010°18'182 6.7
2014-Jul-17 21:23N 60°23' E 005°10'4 5.2
2014-Jul-17 20:31N 60°24' E 005°19'0 0.0
2014-Jul-17 19:31N 60°24' E 005°19'0 0.0
2014-Jul-17 18:31N 60°24' E 005°19'0 0.0
2014-Jul-17 17:25N 60°24' E 005°19'0 0.0
2014-Jul-17 16:31N 60°24' E 005°19'0 0.0
2014-Jul-17 15:31N 60°24' E 005°19'0 0.0
2014-Jul-17 14:31N 60°24' E 005°19'0 0.0
2014-Jul-17 13:31N 60°24' E 005°19'0 0.0
2014-Jul-17 12:31N 60°24' E 005°19'0 0.0
2014-Jul-17 11:31N 60°24' E 005°19'0 0.0
2014-Jul-17 10:31N 60°24' E 005°19'0 0.0
2014-Jul-17 09:31N 60°24' E 005°19'0 0.0
2014-Jul-17 08:31N 60°24' E 005°19'0 0.0
2014-Jul-17 07:25N 60°24' E 005°19'0 0.0
2014-Jul-17 06:25N 60°24' E 005°19'0 0.0
2014-Jul-17 05:31N 60°24' E 005°19'0 0.0
2014-Jul-17 04:31N 60°24' E 005°19'0 0.0
2014-Jul-17 03:31N 60°24' E 005°19'0 0.0
2014-Jul-17 02:31N 60°24' E 005°19'0 0.0
2014-Jul-17 01:31N 60°24' E 005°19'0 0.0
2014-Jul-17 00:31N 60°24' E 005°19'0 0.0
2014-Jul-16 23:31N 60°24' E 005°19'0 0.0
2014-Jul-16 22:31N 60°24' E 005°19'0 0.0
2014-Jul-16 21:31N 60°24' E 005°19'0 0.0
2014-Jul-16 20:31N 60°24' E 005°19'0 0.0
2014-Jul-16 19:31N 60°24' E 005°19'0 0.0
2014-Jul-16 18:31N 60°24' E 005°19'0 0.0
2014-Jul-16 17:25N 60°24' E 005°19'0 0.0
2014-Jul-16 16:31N 60°24' E 005°19'0 0.0
2014-Jul-16 15:31N 60°24' E 005°19'0 0.0
2014-Jul-16 14:31N 60°24' E 005°19'0 0.0
2014-Jul-16 13:31N 60°24' E 005°19'0 0.0
2014-Jul-16 12:25N 60°24' E 005°19'0 0.0
2014-Jul-16 11:19N 60°24' E 005°19'0 0.0
2014-Jul-16 10:31N 60°24' E 005°19'0 0.0
2014-Jul-16 09:31N 60°24' E 005°19'0 0.0
2014-Jul-16 08:31N 60°24' E 005°19'0 0.0
2014-Jul-16 07:31N 60°24' E 005°19'0 0.0
2014-Jul-16 06:25N 60°24' E 005°19'0 0.0
2014-Jul-16 05:31N 60°24' E 005°19'0 0.4
2014-Jul-16 04:33N 60°24' E 005°18'26912.2
2014-Jul-15 06:33N 58°43' W 002°53'1615.1
2014-Jul-15 05:30N 58°43' W 003°24'1415.3
2014-Jul-15 04:33N 58°43' W 003°52'1615.8
2014-Jul-15 03:33N 58°43' W 004°22'4011.7
2014-Jul-15 00:08N 58°23' W 005°28'813.3
2014-Jul-14 23:30N 58°15' W 005°35'15611.1
2014-Jul-14 09:25N 55°44' W 006°48'910.8
2014-Jul-14 08:33N 55°37' W 006°37'1010.0
2014-Jul-14 07:33N 55°30' W 006°25'1010.4
2014-Jul-14 06:33N 55°25' W 006°08'1212.4
2014-Jul-14 05:33N 55°16' W 005°53'1414.4
2014-Jul-14 04:33N 55°05' W 005°38'1515.2
2014-Jul-14 03:33N 54°52' W 005°23'1514.6
2014-Jul-14 02:33N 54°40' W 005°09'1212.0
2014-Jul-14 01:34N 54°28' W 005°05'1312.3
2014-Jul-14 00:31N 54°16' W 005°14'6611.0
2014-Jul-13 18:32N 53°21' W 006°13'  
Track history (hours):
 
Tides and Currents Weather Stations Pressure Air Temp Water Temp Dewpoint Dewpoint Depression Visibility Wind Speed Wind Dir Waves Ship Positions

Explorer

Last reported at 2014-Jul-23 17:33 UTC. Time now 2014-Jul-23 18:02 UTC.
Position N 59°58' E 026°29'.

Length 180 m; draft 7.4 m.

Type: Passenger vessel. MMSI: 311705000.

Date/timePositionNaut miles runAvg speedWind from/ knotsBaromVisibWave heightAir tempDewpointWater temp
2014-Jul-23 17:33N 59°58' E 026°29'14512.1
2014-Jul-23 05:33N 59°10' E 021°59'1312.5
2014-Jul-23 04:33N 59°02' E 021°41'1312.6
2014-Jul-23 03:33N 58°51' E 021°28'2712.1
2014-Jul-23 01:21N 58°29' E 020°59'1012.2
2014-Jul-23 00:33N 58°21' E 020°49'1212.2
2014-Jul-22 23:33N 58°11' E 020°36'1212.0
2014-Jul-22 22:33N 58°01' E 020°23'1811.9
2014-Jul-22 21:04N 57°45' E 020°10'6111.1
2014-Jul-22 15:33N 56°59' E 018°56'1111.1
2014-Jul-22 14:32N 56°52' E 018°39'1111.0
2014-Jul-22 13:33N 56°46' E 018°23'1111.2
2014-Jul-22 12:33N 56°39' E 018°08'1211.6
2014-Jul-22 11:33N 56°31' E 017°51'1211.6
2014-Jul-22 10:33N 56°24' E 017°35'1511.3
2014-Jul-22 09:15N 56°15' E 017°13'811.1
2014-Jul-22 08:29N 56°10' E 017°01'1111.0
2014-Jul-22 07:30N 56°03' E 016°46'1111.3
2014-Jul-22 06:33N 55°58' E 016°30'1111.2
2014-Jul-22 05:33N 55°52' E 016°13'2811.2
2014-Jul-22 03:06N 55°37' E 015°31'611.2
2014-Jul-22 02:33N 55°34' E 015°22'1111.4
2014-Jul-22 01:33N 55°30' E 015°04'1211.8
2014-Jul-22 00:33N 55°25' E 014°45'1211.8
2014-Jul-21 23:33N 55°17' E 014°29'1111.1
2014-Jul-21 22:33N 55°10' E 014°14'1111.3
2014-Jul-21 21:33N 55°10' E 013°55'1111.3
2014-Jul-21 20:33N 55°11' E 013°35'311.6
2014-Jul-21 20:17N 55°11' E 013°30'811.5
2014-Jul-21 19:33N 55°12' E 013°15'1211.5
2014-Jul-21 18:33N 55°14' E 012°55'1111.1
2014-Jul-21 17:33N 55°17' E 012°36'1211.6
2014-Jul-21 16:33N 55°29' E 012°41'9 9.3
2014-Jul-21 15:33N 55°38' E 012°42'1313.1
2014-Jul-21 14:33N 55°51' E 012°42'1515.4
2014-Jul-21 13:33N 56°06' E 012°34'1616.3
2014-Jul-21 12:33N 56°15' E 012°09'1514.3
2014-Jul-21 11:33N 56°28' E 011°59'1212.0
2014-Jul-21 10:33N 56°40' E 011°54'1211.4
2014-Jul-21 09:32N 56°51' E 011°49'1111.5
2014-Jul-21 08:32N 57°02' E 011°41'1111.3
2014-Jul-21 07:33N 57°12' E 011°35'1211.6
2014-Jul-21 06:33N 57°23' E 011°27'1211.7
2014-Jul-21 05:33N 57°33' E 011°15'1212.0
2014-Jul-21 04:33N 57°41' E 010°58'1010.0
2014-Jul-21 03:33N 57°50' E 010°50'1110.9
2014-Jul-21 02:33N 58°01' E 010°48'4811.9
2014-Jul-20 22:33N 58°48' E 010°39'1212.3
2014-Jul-20 21:33N 59°00' E 010°36'1414.2
2014-Jul-20 20:33N 59°15' E 010°37'2019.6
2014-Jul-20 19:31N 59°35' E 010°38'1814.9
2014-Jul-20 18:20N 59°52' E 010°39'3 3.9
2014-Jul-20 17:28N 59°54' E 010°44'0 0.0
2014-Jul-20 16:28N 59°54' E 010°44'0 0.0
2014-Jul-20 15:28N 59°54' E 010°44'0 0.0
2014-Jul-20 14:28N 59°54' E 010°44'0 0.0
2014-Jul-20 13:28N 59°54' E 010°44'0 0.0
2014-Jul-20 12:28N 59°54' E 010°44'0 0.0
2014-Jul-20 11:28N 59°54' E 010°44'0 0.0
2014-Jul-20 10:19N 59°54' E 010°44'0 0.0
2014-Jul-20 09:31N 59°54' E 010°44'0 0.0
2014-Jul-20 08:22N 59°54' E 010°44'0 0.0
2014-Jul-20 07:22N 59°54' E 010°44'0 0.0
2014-Jul-20 06:22N 59°54' E 010°44'0 0.0
2014-Jul-20 05:25N 59°54' E 010°44'0 0.0
2014-Jul-20 04:25N 59°54' E 010°44'0 0.0
2014-Jul-20 03:22N 59°54' E 010°44'0 0.0
2014-Jul-20 02:28N 59°54' E 010°44'0 0.0
2014-Jul-20 01:28N 59°54' E 010°44'0 0.0
2014-Jul-20 00:31N 59°54' E 010°44'0 0.0
2014-Jul-19 23:31N 59°54' E 010°44'0 0.0
2014-Jul-19 22:31N 59°54' E 010°44'0 0.0
2014-Jul-19 21:31N 59°54' E 010°44'0 0.0
2014-Jul-19 20:31N 59°54' E 010°44'0 0.0
2014-Jul-19 19:22N 59°54' E 010°44'0 0.0
2014-Jul-19 18:31N 59°54' E 010°44'0 0.0
2014-Jul-19 17:22N 59°54' E 010°44'0 0.0
2014-Jul-19 16:10N 59°54' E 010°44'0 0.0
2014-Jul-19 15:25N 59°54' E 010°44'0 0.0
2014-Jul-19 14:22N 59°54' E 010°44'0 0.0
2014-Jul-19 13:28N 59°54' E 010°44'0 0.0
2014-Jul-19 12:25N 59°54' E 010°44'0 0.0
2014-Jul-19 11:28N 59°54' E 010°44'0 0.0
2014-Jul-19 10:25N 59°54' E 010°44'0 0.0
2014-Jul-19 09:16N 59°54' E 010°44'0 0.0
2014-Jul-19 08:31N 59°54' E 010°44'0 0.0
2014-Jul-19 07:31N 59°54' E 010°44'0 0.0
2014-Jul-19 06:31N 59°54' E 010°44'0 0.0
2014-Jul-19 05:33N 59°54' E 010°44'2411.5
2014-Jul-19 03:29N 59°31' E 010°36'1718.7
2014-Jul-19 02:33N 59°14' E 010°38'1514.8
2014-Jul-19 01:33N 58°59' E 010°34'1312.9
2014-Jul-19 00:33N 58°49' E 010°18'182 6.7
2014-Jul-17 21:23N 60°23' E 005°10'4 5.2
2014-Jul-17 20:31N 60°24' E 005°19'0 0.0
2014-Jul-17 19:31N 60°24' E 005°19'0 0.0
2014-Jul-17 18:31N 60°24' E 005°19'0 0.0
2014-Jul-17 17:25N 60°24' E 005°19'0 0.0
2014-Jul-17 16:31N 60°24' E 005°19'0 0.0
2014-Jul-17 15:31N 60°24' E 005°19'0 0.0
2014-Jul-17 14:31N 60°24' E 005°19'0 0.0
2014-Jul-17 13:31N 60°24' E 005°19'0 0.0
2014-Jul-17 12:31N 60°24' E 005°19'0 0.0
2014-Jul-17 11:31N 60°24' E 005°19'0 0.0
2014-Jul-17 10:31N 60°24' E 005°19'0 0.0
2014-Jul-17 09:31N 60°24' E 005°19'0 0.0
2014-Jul-17 08:31N 60°24' E 005°19'0 0.0
2014-Jul-17 07:25N 60°24' E 005°19'0 0.0
2014-Jul-17 06:25N 60°24' E 005°19'0 0.0
2014-Jul-17 05:31N 60°24' E 005°19'0 0.0
2014-Jul-17 04:31N 60°24' E 005°19'0 0.0
2014-Jul-17 03:31N 60°24' E 005°19'0 0.0
2014-Jul-17 02:31N 60°24' E 005°19'0 0.0
2014-Jul-17 01:31N 60°24' E 005°19'0 0.0
2014-Jul-17 00:31N 60°24' E 005°19'0 0.0
2014-Jul-16 23:31N 60°24' E 005°19'0 0.0
2014-Jul-16 22:31N 60°24' E 005°19'0 0.0
2014-Jul-16 21:31N 60°24' E 005°19'0 0.0
2014-Jul-16 20:31N 60°24' E 005°19'0 0.0
2014-Jul-16 19:31N 60°24' E 005°19'0 0.0
2014-Jul-16 18:31N 60°24' E 005°19'0 0.0
2014-Jul-16 17:25N 60°24' E 005°19'0 0.0
2014-Jul-16 16:31N 60°24' E 005°19'0 0.0
2014-Jul-16 15:31N 60°24' E 005°19'0 0.0
2014-Jul-16 14:31N 60°24' E 005°19'0 0.0
2014-Jul-16 13:31N 60°24' E 005°19'0 0.0
2014-Jul-16 12:25N 60°24' E 005°19'0 0.0
2014-Jul-16 11:19N 60°24' E 005°19'0 0.0
2014-Jul-16 10:31N 60°24' E 005°19'0 0.0
2014-Jul-16 09:31N 60°24' E 005°19'0 0.0
2014-Jul-16 08:31N 60°24' E 005°19'0 0.0
2014-Jul-16 07:31N 60°24' E 005°19'0 0.0
2014-Jul-16 06:25N 60°24' E 005°19'0 0.0
2014-Jul-16 05:31N 60°24' E 005°19'0 0.4
2014-Jul-16 04:33N 60°24' E 005°18'26912.2
2014-Jul-15 06:33N 58°43' W 002°53'1615.1
2014-Jul-15 05:30N 58°43' W 003°24'1415.3
2014-Jul-15 04:33N 58°43' W 003°52'1615.8
2014-Jul-15 03:33N 58°43' W 004°22'4011.7
2014-Jul-15 00:08N 58°23' W 005°28'813.3
2014-Jul-14 23:30N 58°15' W 005°35'15611.1
2014-Jul-14 09:25N 55°44' W 006°48'910.8
2014-Jul-14 08:33N 55°37' W 006°37'1010.0
2014-Jul-14 07:33N 55°30' W 006°25'1010.4
2014-Jul-14 06:33N 55°25' W 006°08'1212.4
2014-Jul-14 05:33N 55°16' W 005°53'1414.4
2014-Jul-14 04:33N 55°05' W 005°38'1515.2
2014-Jul-14 03:33N 54°52' W 005°23'1514.6
2014-Jul-14 02:33N 54°40' W 005°09'1212.0
2014-Jul-14 01:34N 54°28' W 005°05'1312.3
2014-Jul-14 00:31N 54°16' W 005°14'6611.0
2014-Jul-13 18:32N 53°21' W 006°13'  

Dump ship's entire track history